Regional Weather Roundup
Issued by NWS

Home | Current Version | Previous Version | Text Only | Print | Product List | Glossary Off
Versions: 1 2 3 4 5 6 7 8 9 10 11 12 13 14 15 16 17 18 19 20 21 22 23 24 25 26 27 28 29 30 31 32 33 34 35 36 37 38 39 40 41 42 43 44 45 46 47 48 49 50

000
ASUS43 KTOP 200459
RWRKS

WEATHER ROUNDUP FOR KANSAS
NATIONAL WEATHER SERVICE GOODLAND KS
1100 PM CST THU JAN 19 2017

NOTE:  "FAIR" INDICATES FEW OR NO CLOUDS BELOW 12,000 FEET WITH NO
SIGNIFICANT WEATHER AND/OR OBSTRUCTIONS TO VISIBILITY.

KSZ001>006-013>018-027>032-041>047-200600-
NORTHWEST KANSAS

CITY           SKY/WX    TMP DP  RH WIND       PRES   REMARKS
GOODLAND       CLOUDY    33  33 100 S9        29.54S FOG
HAYS           FOG       42  42 100 SE5       29.57F VSB 1/4
HILL CITY      FOG       40  40 100 CALM      29.57F VSB 1/4
RUSSELL        FOG       43  43 100 SE6       29.56F VSB 1/4
$$

KSZ061>065-074>080-084>089-200600-
SOUTHWEST KANSAS

CITY           SKY/WX    TMP DP  RH WIND       PRES   REMARKS
DODGE CITY     PTCLDY    37  33  85 CALM      29.56S
ELKHART          N/A     31  27  86 NE3         N/A
GARDEN CITY    PTCLDY    38  33  82 NE5       29.54F
GREAT BEND     FOG       43  43 100 CALM      29.57F VSB 1/2
LIBERAL        CLOUDY    34  28  80 CALM      29.53F
$$

KSZ066>073-081>083-090>101-200600-
SOUTHEAST KANSAS

CITY           SKY/WX    TMP DP  RH WIND       PRES   REMARKS
CHANUTE        CLOUDY    48  45  89 E5        29.61F
COFFEYVILLE    MOCLDY    45  43  93 E6        29.61S
HUTCHINSON     CLOUDY    45  44  97 SE5       29.58F FOG
MEDICINE LODGE   N/A     35  34  96 N3        29.56F
NEWTON         FOG       43  43 100 SE8       29.58F VSB 1/2
PARSONS        CLOUDY    49  46  90 CALM      29.62S
WICHITA INTL   PTCLDY    41  40  96 E7        29.57F FOG
WICHITA JABRA  CLOUDY    45  44  97 CALM      29.58F
WICHITA MCCONL FOG       43  43 100 E6        29.58S VSB 3/4
WINFIELD       CLEAR     45  44  97 E5        29.58F
$$

KSZ007>012-019>026-033>040-048>060-102>105-200600-
NORTHEAST KANSAS

CITY           SKY/WX    TMP DP  RH WIND       PRES   REMARKS
CONCORDIA      FOG       41  41 100 E3        29.58F VSB 1/4
EMPORIA        FOG       40  40 100 E5        29.60S VSB 1/4
LAWRENCE       CLOUDY    45  45 100 CALM      29.63S FOG
MANHATTAN      FOG       44  44 100 E3        29.61F VSB 1/2
OLATHE IND     CLOUDY    46  45  96 E3        29.63F FOG
OLATHE EXE     CLOUDY    45  45 100 CALM      29.62F FOG
SALINA         CLOUDY    45  43  93 SE5       29.60F FOG
TOPEKA BILLARD FOG       45  43  93 E3        29.62F VSB 1/2
TOPEKA FORBES  CLOUDY    46  45  96 E3        29.61F FOG
$$




USA.gov is the U.S. government's official web portal to all federal, state and local government web resources and services.